User: anonymous   Login
Location: Unspecified
(0.0000°N, 0.0000°E)
Time: 17:28:02
(UTC+00:00)
Language:

AISAT - Orbit

View from above orbital plane
View from above orbital plane
View from above satellite
View from above satellite

Ground track
Ground track

The orbit data is extracted from the following two-line orbital elements,

1 40054U 14034B   18116.07353546  .00000458  00000-0  71785-4 0  9994
2 40054  98.1961 225.5743 0014273 120.7588 239.5029 14.77437964205914
Epoch (UTC): 26 April 2018 01:45:53
Eccentricity: 0.0014273
inclination: 98.1961°
perigee height: 627 km
apogee height: 647 km
right ascension of ascending node: 225.5743°
argument of perigee: 120.7588°
revolutions per day: 14.77437964
mean anomaly at epoch: 239.5029°
orbit number at epoch: 20591

The dashed part of the orbit path shows where the satellite is in the earth's shadow,  

DLR